QPF
0.06 0.01 0.01 0.01 0.01 0.01 0.01 0.01 0.01 0.01 0.01 0.00 0.00 0.00 0.00 0.00 0.00 0.00 0.00 0.00 0.00 0.01 0.00 0.00 0.00 0.01 0.01 0.01 0.01 0.01 0.01 0.01 0.01 0.01 0.02 0.03 0.03 0.03
0.07 0.05 0.02 0.01 0.00 0.00 0.00 0.00 0.01 0.01 0.01 0.00 0.00 0.00 0.00 0.00 0.00 0.00 0.00 0.00 0.01 0.01 0.01 0.00 0.00 0.01 0.01 0.01 0.01 0.01 0.01 0.01 0.01 0.01 0.02 0.03 0.03 0.03
0.04 0.05 0.03 0.01 0.01 0.00 0.01 0.01 0.00 0.00 0.01 0.00 0.00 0.00 0.00 0.00 0.00 0.00 0.00 0.00 0.01 0.01 0.01 0.01 0.00 0.00 0.00 0.00 0.01 0.01 0.01 0.01 0.01 0.01 0.01 0.02 0.03 0.03
0.03 0.02 0.03 0.02 0.01 0.01 0.01 0.01 0.00 0.00 0.01 0.00 0.00 0.00 0.00 0.00 0.00 0.00 0.00 0.00 0.00 0.00 0.00 0.00 0.00 0.00 0.00 0.00 0.01 0.01 0.01 0.01 0.01 0.01 0.02 0.02 0.03 0.04
0.03 0.02 0.02 0.02 0.01 0.01 0.01 0.00 0.00 0.00 0.01 0.01 0.00 0.00 0.00 0.00 0.00 0.00 0.00 0.00 0.00 0.00 0.00 0.00 0.00 0.00 0.00 0.00 0.00 0.00 0.01 0.01 0.01 0.01 0.01 0.02 0.02 0.02
0.02 0.02 0.01 0.01 0.01 0.01 0.01 0.00 0.00 0.00 0.01 0.01 0.01 0.00 0.00 0.00 0.00 0.00 0.00 0.00 0.00 0.00 0.00 0.00 0.00 0.00 0.00 0.00 0.00 0.00 0.00 0.01 0.01 0.01 0.01 0.01 0.02 0.02
0.01 0.01 0.01 0.01 0.01 0.01 0.01 0.01 0.01 0.01 0.01 0.01 0.01 0.00 0.00 0.00 0.00 0.00 0.00 0.00 0.00 0.00 0.00 0.00 0.00 0.00 0.00 0.00 0.00 0.00 0.00 0.01 0.01 0.01 0.02 0.02 0.02 0.02
0.01 0.01 0.01 0.01 0.01 0.01 0.01 0.01 0.01 0.01 0.01 0.01 0.01 0.01 0.00 0.00 0.00 0.01 0.01 0.01 0.00 0.00 0.00 0.00 0.00 0.00 0.00 0.00 0.00 0.00 0.00 0.01 0.01 0.01 0.02 0.02 0.02 0.01
0.01 0.01 0.01 0.01 0.01 0.01 0.02 0.02 0.01 0.01 0.01 0.01 0.01 0.01 0.01 0.01 0.01 0.01 0.01 0.01 0.00 0.00 0.00 0.00 0.00 0.00 0.00 0.00 0.00 0.00 0.01 0.01 0.01 0.01 0.01 0.01 0.01 0.01
0.01 0.00 0.01 0.01 0.01 0.01 0.02 0.02 0.02 0.02 0.01 0.01 0.01 0.00 0.01 0.01 0.01 0.01 0.01 0.01 0.00 0.00 0.00 0.00 0.00 0.00 0.00 0.00 0.00 0.00 0.00 0.01 0.01 0.01 0.01 0.01 0.01 0.01
0.01 0.01 0.00 0.00 0.01 0.01 0.01 0.02 0.02 0.02 0.01 0.01 0.01 0.01 0.01 0.00 0.00 0.01 0.01 0.01 0.01 0.00 0.00 0.00 0.00 0.00 0.00 0.00 0.00 0.00 0.00 0.00 0.01 0.01 0.01 0.01 0.01 0.01
0.01 0.01 0.01 0.01 0.01 0.01 0.01 0.01 0.02 0.01 0.01 0.01 0.01 0.00 0.00 0.00 0.00 0.01 0.01 0.02 0.02 0.01 0.00 0.01 0.01 0.01 0.01 0.00 0.00 0.00 0.00 0.00 0.01 0.01 0.01 0.01 0.01 0.00
0.01 0.01 0.01 0.01 0.01 0.01 0.01 0.01 0.01 0.01 0.01 0.01 0.00 0.00 0.00 0.00 0.00 0.01 0.01 0.02 0.02 0.01 0.00 0.01 0.02 0.01 0.02 0.01 0.01 0.01 0.00 0.00 0.00 0.00 0.01 0.01 0.01 0.01
0.01 0.01 0.01 0.01 0.01 0.01 0.01 0.01 0.01 0.01 0.00 0.00 0.00 0.00 0.00 0.00 0.00 0.01 0.01 0.01 0.01 0.01 0.01 0.01 0.02 0.02 0.03 0.02 0.01 0.01 0.00 0.00 0.01 0.01 0.00 0.00 0.01 0.01
0.01 0.01 0.01 0.01 0.02 0.01 0.01 0.01 0.01 0.01 0.00 0.01 0.01 0.01 0.01 0.01 0.01 0.01 0.00 0.00 0.00 0.00 0.00 0.01 0.02 0.02 0.03 0.03 0.02 0.01 0.01 0.01 0.01 0.01 0.01 0.01 0.01 0.01
0.02 0.02 0.02 0.02 0.02 0.02 0.02 0.01 0.00 0.00 0.01 0.01 0.01 0.01 0.01 0.01 0.01 0.01 0.00 0.00 0.00 0.00 0.00 0.00 0.01 0.01 0.02 0.02 0.02 0.01 0.01 0.01 0.01 0.01 0.01 0.01 0.01 0.01
0.02 0.02 0.02 0.02 0.02 0.01 0.01 0.01 0.00 0.01 0.01 0.01 0.01 0.01 0.01 0.01 0.01 0.01 0.01 0.01 0.01 0.00 0.00 0.00 0.01 0.01 0.02 0.02 0.02 0.01 0.01 0.01 0.01 0.01 0.01 0.01 0.02 0.02
0.02 0.02 0.02 0.02 0.01 0.01 0.01 0.01 0.01 0.01 0.01 0.01 0.01 0.01 0.01 0.01 0.01 0.00 0.00 0.01 0.01 0.01 0.01 0.01 0.01 0.01 0.01 0.01 0.01 0.01 0.01 0.01 0.01 0.01 0.01 0.01 0.03 0.03
0.03 0.02 0.02 0.01 0.01 0.01 0.01 0.01 0.01 0.01 0.01 0.01 0.01 0.01 0.01 0.01 0.01 0.01 0.01 0.01 0.01 0.01 0.01 0.01 0.01 0.02 0.02 0.02 0.01 0.01 0.01 0.01 0.01 0.01 0.01 0.02 0.03 0.04
0.03 0.02 0.01 0.01 0.01 0.01 0.01 0.01 0.01 0.01 0.01 0.01 0.01 0.02 0.02 0.01 0.01 0.01 0.01 0.01 0.01 0.01 0.01 0.01 0.02 0.03 0.03 0.03 0.02 0.01 0.01 0.01 0.02 0.02 0.02 0.02 0.03 0.04
0.02 0.02 0.01 0.01 0.01 0.00 0.01 0.01 0.01 0.01 0.01 0.01 0.01 0.02 0.01 0.01 0.01 0.01 0.01 0.01 0.01 0.02 0.02 0.02 0.02 0.02 0.02 0.02 0.02 0.02 0.01 0.02 0.02 0.02 0.02 0.02 0.03 0.03
0.01 0.01 0.01 0.01 0.00 0.00 0.01 0.01 0.01 0.01 0.01 0.01 0.01 0.01 0.01 0.01 0.01 0.02 0.02 0.02 0.02 0.02 0.02 0.01 0.01 0.01 0.01 0.02 0.02 0.02 0.02 0.02 0.02 0.02 0.02 0.02 0.03 0.05
0.01 0.01 0.01 0.01 0.01 0.01 0.01 0.01 0.01 0.02 0.02 0.01 0.01 0.01 0.01 0.01 0.01 0.02 0.02 0.01 0.01 0.01 0.01 0.01 0.01 0.01 0.01 0.02 0.02 0.02 0.02 0.02 0.03 0.03 0.03 0.03 0.04 0.04
MSLP
1020.48 1020.60 1020.72 1020.80 1020.81 1020.73 1020.56 1020.29 1019.95 1019.55 1019.11 1018.67 1018.25 1017.86 1017.50 1017.18 1016.88 1016.58 1016.28 1015.96 1015.61 1015.22 1014.80 1014.35 1013.88 1013.40 1012.91 1012.43 1011.95 1011.48 1011.02 1010.57 1010.11 1009.65 1009.19 1008.72 1008.25 1007.78
1020.06 1020.21 1020.37 1020.49 1020.55 1020.52 1020.38 1020.14 1019.81 1019.41 1018.97 1018.50 1018.04 1017.60 1017.19 1016.80 1016.44 1016.10 1015.75 1015.39 1015.01 1014.60 1014.16 1013.71 1013.24 1012.76 1012.28 1011.81 1011.35 1010.90 1010.45 1010.00 1009.54 1009.07 1008.59 1008.10 1007.60 1007.10
1019.51 1019.67 1019.84 1019.99 1020.08 1020.08 1019.99 1019.79 1019.50 1019.13 1018.70 1018.23 1017.76 1017.30 1016.85 1016.42 1016.01 1015.61 1015.22 1014.81 1014.39 1013.94 1013.48 1013.01 1012.52 1012.04 1011.57 1011.11 1010.66 1010.23 1009.79 1009.36 1008.91 1008.45 1007.97 1007.46 1006.94 1006.42
1018.89 1019.04 1019.20 1019.36 1019.46 1019.50 1019.44 1019.29 1019.04 1018.71 1018.32 1017.88 1017.42 1016.95 1016.48 1016.03 1015.58 1015.14 1014.70 1014.24 1013.77 1013.28 1012.78 1012.28 1011.77 1011.28 1010.80 1010.34 1009.90 1009.48 1009.07 1008.66 1008.24 1007.79 1007.32 1006.82 1006.29 1005.75
1018.25 1018.37 1018.51 1018.65 1018.76 1018.82 1018.79 1018.68 1018.48 1018.20 1017.85 1017.45 1017.01 1016.56 1016.09 1015.62 1015.15 1014.68 1014.19 1013.69 1013.18 1012.65 1012.11 1011.56 1011.03 1010.51 1010.01 1009.54 1009.11 1008.69 1008.30 1007.91 1007.51 1007.08 1006.63 1006.14 1005.62 1005.08
1017.63 1017.70 1017.81 1017.92 1018.02 1018.08 1018.08 1018.01 1017.85 1017.62 1017.32 1016.96 1016.55 1016.12 1015.66 1015.19 1014.71 1014.22 1013.71 1013.18 1012.63 1012.07 1011.49 1010.91 1010.33 1009.78 1009.25 1008.76 1008.30 1007.88 1007.48 1007.10 1006.71 1006.31 1005.87 1005.40 1004.90 1004.38
1017.02 1017.05 1017.12 1017.20 1017.28 1017.33 1017.34 1017.30 1017.18 1016.99 1016.72 1016.41 1016.04 1015.63 1015.20 1014.74 1014.26 1013.77 1013.25 1012.71 1012.15 1011.56 1010.96 1010.34 1009.73 1009.13 1008.56 1008.02 1007.52 1007.07 1006.64 1006.24 1005.85 1005.45 1005.02 1004.57 1004.10 1003.60
1016.43 1016.41 1016.42 1016.47 1016.52 1016.57 1016.59 1016.55 1016.46 1016.30 1016.08 1015.80 1015.47 1015.10 1014.69 1014.26 1013.80 1013.33 1012.83 1012.29 1011.73 1011.14 1010.52 1009.88 1009.23 1008.58 1007.95 1007.35 1006.79 1006.27 1005.79 1005.35 1004.92 1004.50 1004.08 1003.64 1003.19 1002.71
1015.80 1015.75 1015.72 1015.74 1015.77 1015.80 1015.82 1015.79 1015.72 1015.59 1015.40 1015.16 1014.86 1014.52 1014.15 1013.75 1013.34 1012.89 1012.42 1011.92 1011.38 1010.80 1010.17 1009.52 1008.83 1008.13 1007.43 1006.76 1006.11 1005.50 1004.94 1004.43 1003.95 1003.49 1003.05 1002.61 1002.17 1001.73
1015.15 1015.06 1015.01 1015.00 1015.01 1015.03 1015.04 1015.03 1014.97 1014.86 1014.70 1014.49 1014.22 1013.92 1013.59 1013.24 1012.86 1012.46 1012.03 1011.57 1011.06 1010.50 1009.88 1009.21 1008.49 1007.74 1006.98 1006.21 1005.47 1004.77 1004.11 1003.50 1002.95 1002.44 1001.96 1001.51 1001.08 1000.67
1014.44 1014.34 1014.28 1014.26 1014.26 1014.28 1014.29 1014.29 1014.24 1014.15 1014.01 1013.82 1013.59 1013.32 1013.03 1012.71 1012.38 1012.02 1011.64 1011.21 1010.73 1010.19 1009.59 1008.91 1008.16 1007.36 1006.53 1005.69 1004.85 1004.05 1003.29 1002.60 1001.96 1001.39 1000.88 1000.41 999.98 999.58
1013.73 1013.63 1013.57 1013.55 1013.55 1013.57 1013.59 1013.59 1013.56 1013.48 1013.35 1013.19 1012.98 1012.73 1012.47 1012.18 1011.88 1011.56 1011.20 1010.81 1010.35 1009.83 1009.22 1008.53 1007.77 1006.94 1006.05 1005.14 1004.23 1003.35 1002.51 1001.73 1001.03 1000.40 999.84 999.36 998.92 998.54
1013.05 1012.96 1012.92 1012.91 1012.92 1012.94 1012.96 1012.96 1012.93 1012.86 1012.75 1012.59 1012.39 1012.17 1011.92 1011.65 1011.36 1011.05 1010.71 1010.32 1009.87 1009.34 1008.74 1008.04 1007.26 1006.40 1005.49 1004.54 1003.58 1002.65 1001.75 1000.92 1000.17 999.50 998.91 998.40 997.96 997.57
1012.42 1012.37 1012.34 1012.35 1012.37 1012.40 1012.42 1012.42 1012.38 1012.31 1012.20 1012.04 1011.84 1011.62 1011.37 1011.10 1010.80 1010.48 1010.13 1009.73 1009.26 1008.72 1008.10 1007.39 1006.60 1005.74 1004.81 1003.86 1002.89 1001.94 1001.03 1000.17 999.39 998.69 998.08 997.55 997.09 996.69
1011.88 1011.86 1011.86 1011.88 1011.90 1011.93 1011.94 1011.93 1011.89 1011.80 1011.68 1011.51 1011.31 1011.08 1010.81 1010.52 1010.21 1009.86 1009.47 1009.03 1008.53 1007.96 1007.32 1006.60 1005.80 1004.95 1004.04 1003.10 1002.16 1001.22 1000.33 999.48 998.70 997.99 997.35 996.79 996.31 995.88
1011.43 1011.43 1011.45 1011.47 1011.50 1011.51 1011.51 1011.48 1011.42 1011.32 1011.17 1011.00 1010.78 1010.53 1010.25 1009.93 1009.58 1009.19 1008.76 1008.27 1007.72 1007.11 1006.44 1005.70 1004.91 1004.07 1003.19 1002.29 1001.39 1000.51 999.65 998.83 998.05 997.34 996.68 996.09 995.56 995.09
1011.03 1011.05 1011.08 1011.10 1011.12 1011.11 1011.08 1011.03 1010.94 1010.82 1010.66 1010.47 1010.24 1009.98 1009.68 1009.33 1008.95 1008.51 1008.02 1007.48 1006.88 1006.23 1005.52 1004.76 1003.97 1003.15 1002.32 1001.47 1000.63 999.80 998.98 998.20 997.44 996.72 996.04 995.40 994.81 994.28
1010.64 1010.68 1010.71 1010.72 1010.72 1010.68 1010.63 1010.54 1010.43 1010.29 1010.12 1009.92 1009.69 1009.42 1009.11 1008.75 1008.33 1007.85 1007.32 1006.72 1006.07 1005.37 1004.63 1003.86 1003.07 1002.27 1001.47 1000.67 999.88 999.11 998.34 997.58 996.83 996.09 995.37 994.68 994.01 993.40
1010.24 1010.28 1010.30 1010.30 1010.27 1010.21 1010.13 1010.02 1009.89 1009.74 1009.57 1009.37 1009.14 1008.88 1008.56 1008.19 1007.75 1007.25 1006.67 1006.03 1005.33 1004.59 1003.82 1003.03 1002.24 1001.45 1000.68 999.92 999.18 998.44 997.70 996.96 996.20 995.44 994.67 993.91 993.18 992.47
1009.81 1009.84 1009.85 1009.83 1009.78 1009.70 1009.60 1009.47 1009.33 1009.17 1009.00 1008.81 1008.60 1008.34 1008.03 1007.66 1007.21 1006.68 1006.08 1005.40 1004.67 1003.89 1003.08 1002.28 1001.48 1000.70 999.95 999.22 998.51 997.80 997.08 996.34 995.58 994.78 993.97 993.15 992.33 991.55
1009.33 1009.36 1009.36 1009.33 1009.27 1009.17 1009.05 1008.91 1008.76 1008.60 1008.44 1008.25 1008.05 1007.80 1007.49 1007.12 1006.66 1006.12 1005.49 1004.79 1004.02 1003.22 1002.39 1001.57 1000.77 1000.00 999.27 998.57 997.88 997.19 996.49 995.75 994.97 994.16 993.30 992.43 991.56 990.71
1008.84 1008.87 1008.86 1008.82 1008.74 1008.63 1008.50 1008.34 1008.18 1008.02 1007.85 1007.67 1007.46 1007.20 1006.89 1006.51 1006.04 1005.48 1004.84 1004.11 1003.32 1002.50 1001.67 1000.85 1000.06 999.31 998.60 997.92 997.27 996.60 995.92 995.20 994.43 993.60 992.73 991.83 990.93 990.04
1008.36 1008.38 1008.36 1008.31 1008.22 1008.09 1007.94 1007.77 1007.59 1007.40 1007.20 1007.00 1006.77 1006.49 1006.16 1005.75 1005.26 1004.68 1004.01 1003.28 1002.49 1001.67 1000.85 1000.05 999.29 998.58 997.91 997.28 996.67 996.05 995.41 994.73 993.98 993.18 992.32 991.42 990.52 989.63
Thickness
5563 5561 5559 5557 5555 5553 5551 5549 5548 5550 5551 5547 5541 5536 5532 5529 5526 5524 5522 5520 5517 5515 5512 5510 5507 5504 5502 5498 5496 5494 5491 5487 5485 5483 5482 5481 5480 5479
5554 5552 5551 5549 5547 5544 5542 5541 5539 5539 5539 5538 5533 5528 5524 5521 5518 5515 5513 5511 5508 5506 5503 5500 5497 5495 5492 5488 5486 5483 5480 5478 5475 5474 5473 5472 5471 5471
5546 5544 5543 5540 5539 5536 5534 5532 5530 5529 5529 5527 5522 5519 5516 5513 5510 5507 5505 5502 5500 5497 5494 5491 5488 5485 5482 5478 5475 5473 5471 5468 5466 5465 5464 5463 5462 5462
5539 5537 5535 5532 5530 5528 5526 5524 5522 5521 5519 5518 5515 5511 5508 5505 5502 5500 5497 5493 5491 5488 5485 5482 5479 5475 5472 5469 5466 5464 5461 5459 5458 5456 5455 5454 5454 5453
5531 5529 5528 5525 5523 5521 5518 5517 5514 5512 5510 5508 5506 5502 5500 5497 5495 5492 5489 5486 5482 5479 5476 5473 5469 5466 5463 5460 5457 5455 5452 5451 5449 5448 5446 5445 5445 5444
5523 5521 5520 5518 5517 5514 5511 5509 5506 5504 5501 5499 5497 5495 5492 5489 5486 5485 5483 5479 5475 5471 5467 5464 5461 5457 5454 5451 5449 5447 5444 5442 5441 5440 5438 5437 5436 5436
5515 5514 5513 5511 5509 5506 5504 5501 5499 5496 5494 5491 5489 5487 5485 5482 5479 5475 5473 5471 5467 5462 5460 5456 5453 5451 5447 5444 5441 5439 5436 5435 5434 5432 5431 5430 5429 5429
5508 5507 5505 5503 5500 5497 5495 5493 5491 5489 5486 5484 5481 5480 5477 5474 5470 5466 5463 5461 5461 5455 5450 5449 5445 5443 5440 5437 5434 5431 5430 5428 5427 5426 5424 5424 5423 5423
5500 5499 5498 5496 5493 5491 5488 5484 5482 5478 5476 5475 5474 5472 5469 5466 5462 5458 5454 5451 5448 5443 5440 5442 5439 5437 5433 5430 5427 5425 5424 5422 5421 5420 5419 5418 5418 5418
5492 5491 5490 5488 5486 5483 5481 5478 5475 5472 5469 5467 5466 5463 5459 5456 5452 5448 5445 5442 5440 5436 5431 5431 5432 5430 5427 5425 5422 5420 5418 5417 5415 5414 5413 5413 5413 5414
5483 5483 5482 5480 5478 5476 5473 5471 5468 5465 5461 5459 5456 5453 5450 5446 5442 5440 5437 5435 5435 5432 5424 5421 5422 5421 5422 5421 5419 5416 5414 5412 5411 5410 5409 5408 5408 5409
5475 5475 5474 5472 5470 5467 5466 5464 5462 5459 5455 5453 5449 5446 5443 5439 5435 5431 5429 5426 5425 5423 5419 5414 5413 5411 5415 5418 5415 5412 5411 5409 5408 5406 5405 5405 5404 5405
5468 5467 5466 5464 5462 5459 5458 5456 5454 5451 5448 5445 5442 5439 5435 5431 5428 5424 5420 5418 5416 5414 5410 5406 5405 5404 5403 5408 5410 5408 5406 5405 5404 5403 5402 5401 5400 5400
5459 5459 5457 5455 5453 5452 5450 5448 5444 5442 5440 5437 5435 5431 5428 5424 5421 5418 5414 5412 5409 5407 5404 5400 5399 5399 5398 5401 5403 5404 5403 5401 5400 5399 5398 5398 5398 5397
5450 5450 5448 5447 5445 5443 5441 5439 5437 5435 5433 5430 5427 5424 5420 5417 5414 5412 5410 5407 5406 5403 5400 5398 5396 5395 5394 5394 5395 5397 5398 5398 5396 5395 5395 5394 5394 5395
5441 5440 5439 5437 5436 5434 5433 5431 5429 5427 5425 5423 5420 5417 5414 5411 5409 5408 5406 5404 5403 5402 5399 5397 5395 5393 5393 5392 5391 5392 5393 5392 5392 5392 5391 5391 5391 5391
5432 5431 5431 5429 5428 5427 5425 5424 5422 5419 5417 5415 5413 5411 5408 5407 5405 5403 5401 5400 5399 5398 5397 5396 5393 5392 5391 5389 5389 5390 5390 5390 5389 5388 5388 5389 5390 5390
5424 5424 5423 5422 5421 5420 5418 5416 5414 5413 5411 5409 5407 5405 5404 5402 5400 5398 5397 5396 5395 5394 5393 5392 5391 5391 5391 5390 5387 5387 5387 5387 5386 5385 5385 5386 5388 5389
5416 5416 5415 5415 5413 5412 5410 5408 5407 5405 5404 5403 5402 5401 5399 5397 5395 5394 5393 5392 5391 5390 5389 5388 5387 5387 5388 5388 5387 5383 5382 5383 5383 5383 5384 5383 5385 5387
5408 5408 5408 5407 5406 5404 5402 5401 5400 5399 5398 5397 5397 5396 5394 5392 5391 5390 5389 5387 5387 5386 5386 5385 5383 5382 5381 5380 5380 5380 5379 5379 5380 5381 5382 5383 5384 5386
5401 5400 5400 5399 5398 5397 5395 5394 5394 5393 5393 5392 5392 5391 5390 5388 5387 5386 5385 5383 5383 5383 5383 5382 5379 5377 5376 5376 5377 5379 5378 5377 5377 5377 5380 5382 5384 5387
5393 5392 5392 5391 5391 5390 5389 5389 5388 5388 5388 5387 5387 5387 5385 5384 5383 5382 5381 5380 5380 5379 5379 5378 5377 5376 5376 5375 5376 5376 5377 5377 5378 5378 5378 5379 5380 5382
5385 5385 5385 5384 5384 5384 5384 5384 5384 5383 5383 5383 5383 5383 5381 5380 5379 5378 5377 5376 5376 5376 5376 5375 5375 5374 5374 5373 5373 5374 5375 5376 5378 5379 5379 5379 5379 5379